Home   Weather   Malakal   Past weeks

Flag for South Sudan Past Weather in Malakal, South Sudan — Yesterday and Last 2 Weeks

Now
75 °F

Clear.


Feels Like: 77 °F
Forecast: 75 / 99 °F
Wind: 8 mph from Northwest

Location: Khartoum Airport

Current Time: Dec 8, 2016 at 1:16:31 am

Latest Report: Dec 8, 2016 at 1:00 am


Visibility: 10 mi

Pressure: 29.98 "Hg

Humidity: 25%

Dew Point: 37 °F

Location of MalakalLocation

Past Weather in Malakal — Graph

°F

Malakal Temperature Yesterday

Maximum temperature yesterday: 90 °F (at 2:00 pm)
Minimum temperature yesterday: 70 °F (at 6:30 am)
Average temperature yesterday: 80 °F

High & Low Weather Summary for the Past Weeks

 TemperatureHumidityPressure
High99 °F (Dec 5, 4:00 pm)54% (Dec 4, 7:00 am)30.04 "Hg (Dec 4, 7:00 am)
Low66 °F (Nov 26, 7:30 am)10% (Nov 24, 4:00 pm)29.80 "Hg (Nov 29, 5:00 pm)
Average83 °F25%29.91 "Hg
* Reported Nov 23 12:00 am — Dec 8 12:00 am, Malakal, Weather by CustomWeather, © 2016

Note: Actual official high and low records may vary slightly from our data, if they occured in-between our weather recording intervals... More about our weather records

Advertising

Malakal Weather History for the Previous 24 Hours

Scroll right to see more
 ConditionsComfort  
Time TempWeatherWind HumidityBarometerVisibility
12:00 am
Thu, Dec 8
73 °FClear.7 mph31%29.98 "Hg10 mi
11:30 pm
Wed, Dec 7
73 °FClear.7 mph27%29.98 "Hg10 mi
11:00 pm79 °FClear.7 mph24%29.98 "Hg10 mi
10:30 pm79 °FClear.9 mph26%29.98 "Hg10 mi
10:00 pm81 °FClear.9 mph26%29.98 "Hg10 mi
9:00 pm82 °FClear.10 mph23%29.98 "Hg10 mi
8:00 pm84 °FClear.9 mph23%29.95 "Hg10 mi
7:30 pm86 °FClear.9 mph22%29.95 "Hg10 mi
7:00 pm86 °FClear.12 mph22%29.92 "Hg10 mi
6:30 pm88 °FClear.9 mph21%29.92 "Hg10 mi
6:00 pm90 °FSunny.12 mph22%29.92 "Hg10 mi
5:30 pm90 °FSunny.13 mph20%29.89 "Hg10 mi
5:00 pm90 °FSunny.14 mph21%30.04 "Hg10 mi
4:30 pm90 °FSunny.14 mph20%29.89 "Hg10 mi
4:00 pm90 °FSunny.14 mph21%29.89 "Hg10 mi
3:30 pm90 °FSunny.14 mph22%29.89 "Hg10 mi
3:00 pm90 °FSunny.14 mph26%29.89 "Hg10 mi
2:30 pm90 °FSunny.9 mph22%29.89 "Hg10 mi
2:00 pm90 °FSunny.9 mph21%29.92 "Hg10 mi
1:30 pm86 °FSunny.10 mph27%29.95 "Hg10 mi
1:00 pm86 °FSunny.14 mph27%29.95 "Hg10 mi
12:30 pm82 °FSunny.12 mph25%29.98 "Hg10 mi
12:00 pm82 °FSunny.8 mph25%29.98 "Hg10 mi
11:30 am77 °FSunny.9 mph24%30.01 "Hg10 mi
11:00 am77 °FSunny.12 mph24%30.01 "Hg10 mi
10:30 am75 °FSunny.12 mph22%30.01 "Hg10 mi
10:00 am75 °FSunny.10 mph22%30.01 "Hg10 mi
9:30 am73 °FSunny.12 mph20%30.01 "Hg10 mi
9:00 am73 °FSunny.12 mph20%29.98 "Hg10 mi
8:30 am72 °FSunny.9 mph19%29.98 "Hg10 mi
8:00 am70 °FSunny.10 mph21%29.98 "Hg10 mi
7:00 am70 °FClear.12 mph21%29.95 "Hg10 mi
6:30 am70 °FClear.13 mph27%29.98 "Hg10 mi
6:00 am72 °FClear.10 mph25%29.95 "Hg10 mi
5:30 am73 °FClear.12 mph27%29.95 "Hg10 mi
5:00 am73 °FClear.10 mph27%29.95 "Hg10 mi
4:00 am73 °FClear.8 mph27%29.95 "Hg10 mi
3:30 am75 °FClear.8 mph21%29.95 "Hg10 mi
3:00 am75 °FClear.12 mph21%29.92 "Hg10 mi
2:30 am77 °FClear.10 mph24%29.95 "Hg10 mi
2:00 am77 °FClear.12 mph24%29.92 "Hg10 mi
1:30 am77 °FClear.12 mph24%29.95 "Hg10 mi
1:00 am77 °FClear.7 mph24%29.95 "Hg10 mi
Weather by CustomWeather, © 2016

See weather overviewHow to use our weather pages